Hors Challenge

Le Trail Du Beaujolais Nouveau - Haversin (21.00 km)

samedi 23 novembre 2019

Vous pouvez trouver Le classement original sur : http://ultratiming.be
 
LE TRAIL DU BEAUJOLAIS NOUVEAU - HAVERSIN
DISTANCE 20.93 km
samedi 23 novembre 2019
 
Place dos NOM Equipe Catégorie Pl/cat temps temps/km Vitesse
01:00:00                
1 4558 VAN GEENE STIJN - ESPH 1 1:32:20 04:25 13.60
2 4562 VAN TRIGT BART - SEH 1 1:32:22 04:25 13.60
3 4454 FABRE FLORIAN - SEH 2 1:35:26 04:34 13.16
4 4589 BRAGARD MARTIN - SEH 3 1:36:28 04:37 13.02
5 4586 LEPLAE PASCAL BORN TO RUN V1H 1 1:38:15 04:42 12.78
6 4467 GOURGUE BENJAMIN - SEH 4 1:38:30 04:42 12.75
7 4502 MATTHYS ALEXIS - SEH 5 1:38:50 04:43 12.71
8 4582 DIEFFENBACH MARTIAL - V1H 2 1:38:57 04:44 12.69
9 4493 LHERMITTE IGOR - SEH 6 1:39:25 04:45 12.63
10 4464 GHYSEL THOMAS - SEH 7 1:39:53 04:46 12.57
11 4418 CELENTIN HUGUES - SEH 8 1:40:24 04:48 12.51
12 4612 RULOT BENOÎT SANGLIER DU MARDI V1H 3 1:41:42 04:52 12.35
13 4476 IWENS ALAIN - V2H 1 1:42:17 04:53 12.28
14 4539 RYCKMANS LOUIS - ESPH 2 1:42:49 04:55 12.21
15 4530 QUERTINMONT CORENTIN - ESPH 3 1:43:27 04:57 12.14
16 4555 TYS MAXIME - SEH 9 1:44:06 04:58 12.06
17 4542 SCHAERS LAURENT - SEH 10 1:44:35 05:00 12.01
18 4627 HANNEQUART XAVIER - V1H 4 1:44:56 05:01 11.97
19 4626 KEMPINAIRE JONATHAN ARCH SEH 11 1:45:01 05:01 11.96
20 4403 BAUDOIN PHILIPPE - V1H 5 1:45:02 05:01 11.96
21 4618 CHABOTEAUX JÉRÔME TEAM SINGLE TRACK SEH 12 1:45:11 05:02 11.94
22 4497 MAHIEU HUGUES - V3H 1 1:45:16 05:02 11.93
23 4432 DELVAUX LAURENT - SEH 13 1:45:47 05:03 11.87
24 4607 PAUWELS MAXIME - ESPH 4 1:47:24 05:08 11.69
25 4509 MONRAD EDWARD - SEH 14 1:48:11 05:10 11.61
26 4514 NORMAND JOACHIM - SEH 15 1:48:21 05:11 11.59
27 4526 POCHET GIL - SEH 16 1:48:40 05:12 11.56
28 4577 BOURGUIGNON LAURENT BATIFER TRIATHLON V1H 6 1:48:42 05:12 11.55
29 4532 RIJS CAROLINE - SEF 1 1:48:44 05:12 11.55
30 4571 WYMMERSCH NICOLAS - SEH 17 1:49:25 05:14 11.48
31 4590 VAN TIGGELEN PIERRE-YVES - SEH 18 1:49:38 05:14 11.45
32 4617 WIART YVES - V2H 2 1:49:42 05:14 11.45
33 4642 DELBROUCK THOMAS - SEH 19 1:49:54 05:15 11.43
34 4567 VERHOEVEN ANTOINE - SEH 20 1:50:01 05:15 11.41
35 4598 ANDRIES NICOLAS JOGGING+ V1H 7 1:50:11 05:16 11.40
36 4511 MOTTET PHILIPPE - V1H 8 1:50:24 05:17 11.37
37 4529 POTTIER STEPHAN - V1H 9 1:50:29 05:17 11.37
38 4540 SALOMEZ CARL - SEH 21 1:51:09 05:19 11.30
39 4578 VEREECKE PETER - V1H 10 1:51:11 05:19 11.29
40 4449 DULON OLIVIER - V2H 3 1:51:28 05:20 11.27
41 4616 LANNERS PATRICK - V1H 11 1:52:18 05:22 11.18
42 4435 DENIS MAVERICK - SEH 22 1:52:28 05:22 11.17
43 4148 GUEUNING BENOÎT TAF SEH 23 1:52:28 05:22 11.17
44 4427 DAMAN TAHNEE - SEF 2 1:53:11 05:24 11.09
45 4605 TILMANT GRÉGOIRE ARCH SEH 24 1:55:15 05:30 10.90
46 4536 ROSSION ARNAUD - SEH 25 1:55:39 05:32 10.86
47 4580 VERSTAEN CYRIL BOULETTEAM SEH 26 1:55:39 05:32 10.86
48 4486 LAVIS THIBAUT - SEH 27 1:56:21 05:34 10.79
49 4623 GILSON BRIEUX - SEH 28 1:56:24 05:34 10.79
50 4459 FRANÇOIS GUILLAUME - SEH 29 1:56:28 05:34 10.78
51 4505 MICHAUX LUC - V1H 12 1:56:34 05:34 10.77
52 4498 MAILLEN STEPHAN - V1H 13 1:56:48 05:35 10.75
53 4576 BAQUET DANY - V2H 4 1:57:03 05:36 10.73
54 4436 DESCAMPS FRANÇOIS - SEH 30 1:57:29 05:37 10.69
55 4572 DE GRAUWE FRITZZ - V1H 14 1:57:31 05:37 10.69
56 4601 HOUBION YANNICK EVERFIT V1H 15 1:57:34 05:37 10.68
57 4524 PIRON DIDIER - V2H 5 1:58:24 05:39 10.61
58 4448 DONNAY CÉDRIC - V1H 16 2:00:50 05:46 10.39
59 4613 MATHIEU LAURENT ARCH V1H 17 2:01:00 05:47 10.38
60 4584 LHOAS FRANÇOIS KYOTO SUR SAMBRE ET V2H 6 2:01:03 05:47 10.37
61 4433 DEMELENNE ANTOINE - SEH 31 2:01:05 05:47 10.37
62 4604 DELOBBE PIERRE - SEH 32 2:01:54 05:49 10.30
63 4541 SAUVAGE VINCENT - V1H 18 2:01:55 05:50 10.30
64 4441 DEVAUX EMMANUELLE - V1F 1 2:01:57 05:50 10.30
65 4565 VANNESTE MICHAEL - SEH 33 2:02:19 05:51 10.27
66 4482 KRISTOF MELSENS - V1H 19 2:02:37 05:52 10.24
67 4563 VAN VUGT BUDDY - V1H 20 2:02:50 05:52 10.22
68 4639 GEORGES BENOIT - V1H 21 2:02:53 05:52 10.22
69 4615 DECUPERE YANNICK - V1H 22 2:03:04 05:53 10.20
70 4443 DEWANDRE THOMAS - SEH 34 2:03:32 05:54 10.17
71 4463 GERMEAU PIERRE - SEH 35 2:03:59 05:55 10.13
72 4638 ROCOUR BERTRAND - SEH 36 2:04:37 05:57 10.08
73 4645 POLET SÉBASTIEN - SEH 37 2:04:53 05:58 10.06
74 4597 STALPORT CAROLE LES FRELONS SEF 3 2:05:42 06:00 9.99
75 4635 HERMAND VANESSA CAP BEAURAING V1F 2 2:05:49 06:01 9.98
76 4581 BAETENS DAMIEN VÉLO LIBERTÉ V1H 23 2:05:57 06:01 9.97
77 4602 MESKENS FLORIAN - SEH 38 2:06:00 06:01 9.97
78 4592 LAUWERS SIDNEY ACID JOGGERS CLUB SEH 39 2:06:02 06:01 9.96
79 4560 VAN LINTHOUT PATRICE - V2H 7 2:06:28 06:03 9.93
80 4520 PICKAERT PATRICK - V1H 24 2:06:36 06:03 9.92
81 4588 CALDERS JORN - V2H 8 2:06:48 06:04 9.90
82 4235 TEICHMANN FELIX - SEH 40 2:06:49 06:04 9.90
83 4556 VAN CALOEN ALEXANDRE - V1H 25 2:06:58 06:04 9.89
84 4620 CHILIADE LUIGI - V2H 9 2:07:13 06:05 9.87
85 4415 CEINOS MARJORIE - SEF 4 2:07:17 06:05 9.87
86 4513 MUNAUT JEREMY - V1H 26 2:07:19 06:05 9.86
87 4412 BUZIN DONATIENNE - V2F 1 2:07:29 06:05 9.85
88 4525 PIROT ANAÏS - SEF 5 2:07:40 06:06 9.84
89 4487 LEBAILLY PASCAL - V1H 27 2:07:48 06:06 9.83
90 4628 HUBERT PASCAL ARCH V2H 10 2:08:32 06:08 9.77
91 4549 TANG XIAOHUA - SEH 41 2:08:48 06:09 9.75
92 4646 FAIRON ARNAUD - SEH 42 2:08:53 06:09 9.74
93 4410 BOUCHET XAVIER - V1H 28 2:08:57 06:10 9.74
94 4488 LECLABART YVES - V2H 11 2:09:01 06:10 9.73
95 4414 CAMBIER GEOFFREY - SEH 43 2:09:05 06:10 9.73
96 4522 PIGEOLET LIONEL - V1H 29 2:09:22 06:11 9.71
97 4407 BERGER THIERRY - V1H 30 2:09:28 06:11 9.70
98 4599 MIGNON JULIEN BATIFER SEH 44 2:10:04 06:13 9.65
99 4583 LIETARD OLIVIER - V2H 12 2:10:20 06:14 9.63
100 4422 COLEAU JEREMY - SEH 45 2:10:21 06:14 9.63
101 4547 SPEECKAERT NICOLAS - SEH 46 2:10:26 06:14 9.63
102 4438 DESSOY ARNAUD - SEH 47 2:10:27 06:14 9.63
103 4614 VANDEPOELE DAMIEN GAG V2H 13 2:11:24 06:17 9.56
104 4559 VAN HASSELT DOMINIQUE - V2H 14 2:11:40 06:17 9.54
105 4644 ROBIN MICHAEL CAP BEAURAING V1H 31 2:11:56 06:18 9.52
106 4431 DELBROUCK YANNICK - V1H 32 2:12:01 06:18 9.51
107 4544 SECEMBER ALAIN - V2H 15 2:12:45 06:21 9.46
108 4585 HORIDOR STEPHAN COMMUNAUTÉ SPORTEX T V1H 33 2:12:45 06:21 9.46
109 4561 VAN ROOSMALEN GRIET - V1F 3 2:12:54 06:21 9.45
110 4411 BURON MARIE - V1F 4 2:13:03 06:21 9.44
111 4500 MARISSIAUX BERTRAND - V2H 16 2:13:28 06:23 9.41
112 4570 WYLIN MIETTE - V1F 5 2:13:34 06:23 9.40
113 4444 DHONDT DIDIER - V2H 17 2:13:34 06:23 9.40
114 4545 SIMON DIMITRI - V2H 18 2:13:40 06:23 9.39
115 4641 CELIK CHRISTOPHER EVERFIT SEH 48 2:14:38 06:26 9.33
116 4434 DENDAL DIDIER - V2H 19 2:14:47 06:26 9.32
117 4637 SPEECKAERT NICOLAS - SEH 49 2:14:51 06:27 9.31
118 4531 REYNTIENS MARC - V1H 34 2:15:02 06:27 9.30
119 4629 SCHOONBROODT JEAN PIERRE - V2H 20 2:15:29 06:28 9.27
120 4548 SQUILBIN OLIVIER - V1H 35 2:15:32 06:29 9.27
121 4479 KIVITS GENEVIÈVE - V1F 6 2:15:32 06:29 9.27
122 4611 MALACHE CEDRIC - V1H 36 2:15:41 06:29 9.25
123 4643 XXX - XXX   2:17:05 06:33 9.16
124 4409 BONTEMPS LUC - V2H 21 2:17:14 06:33 9.15
125 4460 GARCIA JOAQUIN - V2H 22 2:17:26 06:34 9.14
126 4478 KALKMAN VINCENT - V1H 37 2:17:27 06:34 9.14
127 4535 ROSMEULEN PIERRE - SEH 50 2:17:34 06:34 9.13
128 4471 GUERY ALAN - V1H 38 2:18:23 06:37 9.07
129 4606 BILLEN PIERRE - V1H 39 2:18:28 06:37 9.07
130 4550 TAVIER GUILLAUME - SEH 51 2:18:31 06:37 9.07
131 4632 DEFOIN XAVIER TAF V2H 23 2:18:54 06:38 9.04
132 4483 LAMBEAU ANTOINE - SEH 52 2:19:10 06:39 9.02
133 4521 PIERARD MATHIEU - SEH 53 2:19:11 06:39 9.02
134 4450 DUPUIS LAURENT - SEH 54 2:19:11 06:39 9.02
135 4564 VANDEVOORDE XAVIER - V1H 40 2:19:11 06:39 9.02
136 4600 DELVAUX SHIRLEY - SEF 6 2:19:17 06:39 9.02
137 4603 DESAEDELEER LIONEL - SEH 55 2:19:18 06:39 9.01
138 4596 VANDEVOORDE STÉPHANIE - V1F 7 2:19:20 06:39 9.01
139 4472 HENROTIN ARNAUD - SEH 56 2:19:25 06:40 9.01
140 4421 COLALILLO JEANINE - V2F 2 2:19:39 06:40 8.99
141 4569 WILLIAMS ANDREW - SEH 57 2:20:05 06:42 8.96
142 4419 CHARIOT BERNARD - V3H 2 2:20:14 06:42 8.95
143 4457 FIEVEZ BENJAMIN - V1H 41 2:20:15 06:42 8.95
144 4408 BLANCKAERT AXEL - V1H 42 2:20:16 06:42 8.95
145 4554 TYS ETIENNE - V3H 3 2:20:22 06:42 8.95
146 4608 GONSETTE CHARLES ÉTIENNE FUN&RUN SEH 58 2:20:44 06:43 8.92
147 4417 CEINOS RODRIGUE - ESPH 5 2:20:47 06:44 8.92
148 4499 MARIEN RAF - V2H 24 2:20:54 06:44 8.91
149 4630 RIFFLART CATHERINE - SEF 7 2:21:10 06:45 8.90
150 4631 JACQUET CHRISTOPHE - V1H 43 2:21:11 06:45 8.89
151 4609 MICHAUX DIDIER JTB BESONRIEUX V2H 25 2:21:15 06:45 8.89
152 4575 NAUTS THIERRY JCCS SEH 59 2:21:39 06:46 8.87
153 4430 DEGLIM JULIEN - SEH 60 2:21:41 06:46 8.86
154 4538 ROUELLE DAPHNE - SEF 8 2:22:10 06:48 8.83
155 4523 PINTUS GIOVANNI - SEH 61 2:22:44 06:49 8.80
156 4425 CORDIER PASCAL - V1H 44 2:23:07 06:50 8.77
157 4490 LECOMTE MICHEL - V2H 26 2:23:58 06:53 8.72
158 4456 FAYS LAURENT - V2H 27 2:24:17 06:54 8.70
159 4619 HENRY CHRISTOPHE - V1H 45 2:24:41 06:55 8.68
160 4533 ROGÉ ADRIEN - SEH 62 2:24:43 06:55 8.68
161 4594 HENROTTIN YVES - V1H 46 2:25:45 06:58 8.62
162 4633 DEBOURCES ALAIN - V1H 47 2:25:46 06:58 8.61
163 4591 LEMMENS ANTOINE ACID JOGGERS CLUB SEH 63 2:26:04 06:59 8.60
164 4424 COP SÉBASTIEN - SEH 64 2:27:36 07:03 8.51
165 4481 KOSTAS XIROGIANNIS - V1H 48 2:27:45 07:04 8.50
166 4402 BALLANT DENIS - V2H 28 2:27:48 07:04 8.50
167 4534 RONVAUX PHILIPPE - V2H 29 2:27:50 07:04 8.49
168 4610 THOMAS VALÉRIE - V1F 8 2:27:54 07:04 8.49
169 4494 LISSOIR ERIC - V1H 49 2:28:03 07:04 8.48
170 4621 BAUDOIN CECILE - V1F 9 2:28:16 07:05 8.47
171 4445 DI CATALDO MICHEL - V3H 4 2:28:24 07:05 8.46
172 4566 VERHAEGHE XAVIER - V2H 30 2:28:30 07:06 8.46
173 4595 DAUTREBANDE NATHALIE LES FRELONS V1F 10 2:31:27 07:14 8.29
174 4528 PONCIN OLIVIER - SEH 65 2:31:28 07:14 8.29
175 4452 DUTRIEUX RONALD - V2H 31 2:31:42 07:15 8.28
176 4420 CNUDDE BRUNO - SEH 66 2:31:58 07:16 8.26
177 4404 BELANGER ISABELLE - V2F 3 2:32:51 07:18 8.22
178 4519 PAUWELS PATRICK - V2H 32 2:33:34 07:20 8.18
179 4491 LEJEUNE CÉDRIC - V1H 50 2:34:56 07:24 8.10
180 4543 SCHEVERS PATRICK - V1H 51 2:34:58 07:24 8.10
181 4413 CALLENS FRANÇOISE - V1F 11 2:35:31 07:26 8.07
182 4557 VAN EYLL PHILIPPE - V1H 52 2:35:39 07:26 8.07
183 4429 DE KUYSSCHER LYDIA - V1F 12 2:36:18 07:28 8.03
184 4470 GROSSEN CHLOE - SEF 9 2:36:35 07:29 8.02
185 4625 MICHELIS FRANÇOIS RUNNING TEAM CONDROZ SEH 67 2:37:25 07:31 7.98
186 4624 BARBÉ DELPHINE RUNNING TEAM CONDROZ SEF 10 2:37:25 07:31 7.98
187 4579 VERPOORTEN ROGER ULTRATRAILLISPGNE V3H 5 2:37:30 07:32 7.97
188 4480 KLABBERS ARNO - V2H 33 2:38:12 07:34 7.94
189 4462 GÉRARD SUZANNE - V1F 13 2:38:20 07:34 7.93
190 4473 HERMAN MAUDE - SEF 11 2:38:20 07:34 7.93
191 4484 LANCE AURÉLIE - V2F 4 2:38:45 07:35 7.91
192 4485 LANCE DIDIER - V2H 34 2:38:45 07:35 7.91
193 4506 MINET LAURENT - V2H 35 2:39:26 07:37 7.88
194 4468 GRIFFÉ LOUISE - ESPF 1 2:40:09 07:39 7.84
195 4469 GRIFFÉ STÉPHANIE - V1F 14 2:40:09 07:39 7.84
196 4573 WEUSTINK SANDER DUNNING IPMPROVEMENT V1H 53 2:41:06 07:42 7.79
197 4574 VAN ESCH DAPHNE - V1F 15 2:41:06 07:42 7.79
198 4458 FORTEMAISON KÉVIN - SEH 68 2:41:35 07:43 7.77
199 4622 BESOHE ALAIN - V2H 36 2:43:02 07:47 7.70
200 4492 LESSIRE CECILE - SEF 12 2:43:32 07:49 7.68
201 4405 BERBEROF SERGE - V2H 37 2:45:25 07:54 7.59
202 4426 DACIER PHILIPPE - V2H 38 2:48:25 08:03 7.46
203 4455 FARNIER MARGUERITE - V2F 5 2:49:53 08:07 7.39
204 4593 GAUSSET OLIVIER AXA TEAM V2H 39 2:49:53 08:07 7.39
205 4587 LECOCQ MICHELE ART ESPF 2 2:49:53 08:07 7.39
206 4465 GILLAIN ALAIN - V2H 40 2:49:54 08:07 7.39
207 4551 THIOUX PASCAL - V1H 54 2:54:29 08:20 7.20
208 4517 PAREZ LEON-PHILIPPE - V3H 6 2:54:40 08:21 7.19
209 4518 PAREZ DELANGE CATHERINE - V2F 6 2:54:41 08:21 7.19
210 4512 MUNAUT ADELINE - SEF 13 2:55:58 08:24 7.14
211 4475 HOQUEZ ISABELLE - V1F 16 2:55:58 08:24 7.14
212 4428 DAS LAETITIA - V1F 17 3:26:27 09:52 6.08
                 
Nos dernières videos